Fort Bridger AP, Fort Bridger, WY

2:58 PM MDT on April 23, 2017 (GMT -0600)
Fort Bridger

Weather History for KFBR - February, 2014

Change the Weather History Date:

Sunday, February 16, 2014

  Actual Average (KEMM) Record (KEMM)
Temperature  
Mean Temperature 36 °F -  
Max Temperature 47 °F 32 °F 48 °F (1970)
Min Temperature 24 °F 8 °F -15 °F (1956)
Degree Days  
Heating Degree Days 30    
Moisture  
Dew Point 26 °F    
Average Humidity 71    
Maximum Humidity 99    
Minimum Humidity 43    
Precipitation  
Precipitation 0.00 in - - ()
Sea Level Pressure  
Sea Level Pressure 29.97 in    
Wind  
Wind Speed 16 mph (West)    
Max Wind Speed 36 mph    
Max Gust Speed 50 mph    
Visibility 9 miles    
Events Snow    
Averages and records for this station are not official NWS values.
T = Trace of Precipitation, MM = Missing Value Source: NWS Daily Summary

Daily Weather History Graph

Daily Weather History Graph

Search for Another Location

Airport or City:

Trip Planner

Search our weather history database for the weather conditions in past years. The results will help you decide how hot, cold, wet, or windy it might be!

Date:

Astronomy

Feb. 16, 2014 Rise Set
Actual Time 7:15 AM MST 5:56 PM MST
Civil Twilight 6:46 AM MST 6:25 PM MST
Nautical Twilight 6:14 AM MST 6:57 PM MST
Astronomical Twilight 5:42 AM MST 7:29 PM MST
Moon 7:58 PM MST (2/16) 7:45 AM MST (2/16)
Length of Visible Light 11h 38m
Length of Day
10h 41m
Full, 97% of the Moon is Illuminated
Feb 16
Full
Feb 22
Last Quarter
Mar 1
New
Mar 8
First Quarter
Mar 16
Full

Hourly Weather History & Observations

Time (MST) Temp. Windchill Dew Point Humidity Pressure Visibility Wind Dir Wind Speed Gust Speed Precip Events Conditions
12:15 AM 42.3 °F 37.3 °F 25.5 °F 52% 29.95 in 10.0 mi WSW 8.1 mph - N/A   Scattered Clouds
12:35 AM 39.9 °F 36.7 °F 26.6 °F 59% 29.95 in 10.0 mi SSE 4.6 mph - N/A   Scattered Clouds
12:55 AM 42.4 °F 38.8 °F 25.3 °F 51% 29.94 in 10.0 mi SSW 5.8 mph - N/A   Clear
1:15 AM 41.4 °F 37.6 °F 25.9 °F 54% 29.93 in 10.0 mi West 5.8 mph - N/A   Clear
1:35 AM 41.4 °F 36.8 °F 25.9 °F 54% 29.93 in 10.0 mi West 6.9 mph - N/A   Clear
1:55 AM 42.1 °F 36.1 °F 25.2 °F 51% 29.91 in 10.0 mi WSW 10.4 mph - N/A   Clear
2:15 AM 42.1 °F 37.1 °F 25.3 °F 52% 29.91 in 10.0 mi West 8.1 mph - N/A   Clear
2:35 AM 41.0 °F 34.7 °F 25.9 °F 55% 29.90 in 10.0 mi WSW 10.4 mph - N/A   Clear
2:55 AM 43.0 °F 35.7 °F 24.1 °F 47% 29.89 in 10.0 mi SW 15.0 mph - N/A   Clear
3:15 AM 41.2 °F 36.6 °F 25.3 °F 53% 29.89 in 10.0 mi West 6.9 mph - N/A   Clear
3:35 AM 40.3 °F 35.5 °F 25.7 °F 56% 29.88 in 10.0 mi West 6.9 mph - N/A   Clear
3:55 AM 39.7 °F 34.9 °F 25.5 °F 57% 29.87 in 10.0 mi West 6.9 mph - N/A   Clear
4:15 AM 40.1 °F 38.0 °F 25.3 °F 56% 29.87 in 10.0 mi West 3.5 mph - N/A   Clear
4:35 AM 38.7 °F - 25.7 °F 60% 29.88 in 10.0 mi Calm Calm - N/A   Clear
4:55 AM 38.8 °F 31.2 °F 26.2 °F 61% 29.88 in 10.0 mi West 12.7 mph - N/A   Scattered Clouds
5:15 AM 41.2 °F 34.1 °F 26.4 °F 56% 29.88 in 10.0 mi WSW 12.7 mph 21.9 mph N/A   Scattered Clouds
5:35 AM 40.1 °F 31.3 °F 27.1 °F 60% 29.87 in 10.0 mi West 17.3 mph 21.9 mph N/A   Clear
5:55 AM 39.7 °F 30.0 °F 27.3 °F 61% 29.86 in 10.0 mi WSW 20.7 mph 26.5 mph N/A   Clear
6:15 AM 42.1 °F 32.3 °F 29.7 °F 61% 29.85 in 10.0 mi WSW 24.2 mph 32.2 mph N/A   Clear
6:35 AM 42.3 °F 31.6 °F 30.0 °F 62% 29.84 in 10.0 mi SW 29.9 mph 39.1 mph N/A   Clear
6:55 AM 42.3 °F 32.8 °F 29.3 °F 60% 29.83 in 10.0 mi WSW 23.0 mph 35.7 mph N/A   Clear
7:15 AM 41.4 °F 31.2 °F 29.8 °F 64% 29.82 in 10.0 mi SW 25.3 mph 32.2 mph N/A   Clear
7:35 AM 41.4 °F 31.4 °F 29.5 °F 63% 29.83 in 10.0 mi SW 24.2 mph 32.2 mph N/A   Clear
7:55 AM 43.2 °F 34.0 °F 27.5 °F 54% 29.83 in 10.0 mi SW 23.0 mph 32.2 mph N/A   Clear
8:15 AM 45.1 °F 36.6 °F 26.4 °F 48% 29.83 in 10.0 mi SW 23.0 mph 32.2 mph N/A   Clear
8:35 AM 46.2 °F 38.1 °F 25.7 °F 45% 29.83 in 10.0 mi WSW 23.0 mph 35.7 mph N/A   Clear
8:55 AM 47.3 °F - 25.7 °F 43% 29.83 in 10.0 mi WSW 20.7 mph 27.6 mph N/A   Clear
9:15 AM 46.6 °F - 27.1 °F 47% 29.84 in 10.0 mi WSW 21.9 mph 27.6 mph N/A   Scattered Clouds
9:35 AM 47.8 °F - 26.1 °F 43% 29.84 in 10.0 mi SW 26.5 mph 36.8 mph N/A   Mostly Cloudy
9:55 AM 45.7 °F 35.9 °F 28.4 °F 51% 29.85 in 10.0 mi WSW 32.2 mph 49.5 mph N/A   Overcast
10:15 AM 43.9 °F 33.9 °F 31.5 °F 62% 29.86 in 10.0 mi WSW 28.8 mph 40.3 mph N/A   Overcast
10:35 AM 43.3 °F 32.3 °F 30.7 °F 61% 29.86 in 10.0 mi SW 34.5 mph 46.0 mph N/A   Overcast
10:55 AM 41.4 °F 30.1 °F 31.5 °F 68% 29.86 in 10.0 mi WSW 31.1 mph 41.4 mph N/A   Overcast
11:15 AM 41.9 °F 32.3 °F 32.0 °F 68% 29.87 in 10.0 mi WSW 23.0 mph 34.5 mph N/A   Overcast
11:35 AM 38.5 °F 27.1 °F 34.0 °F 84% 29.86 in 5.0 mi WSW 26.5 mph 36.8 mph N/A   Unknown
11:55 AM 41.9 °F 31.5 °F 34.0 °F 73% 29.85 in 10.0 mi West 27.6 mph 33.4 mph N/A   Overcast
12:15 PM 41.9 °F 32.1 °F 32.5 °F 69% 29.84 in 10.0 mi West 24.2 mph 38.0 mph N/A   Overcast
12:35 PM 37.9 °F 24.7 °F 33.1 °F 83% 29.85 in 7.0 mi WSW 35.7 mph 46.0 mph N/A Snow Light Snow
12:55 PM 36.9 °F 24.9 °F 33.4 °F 87% 29.86 in 7.0 mi WSW 26.5 mph 42.6 mph N/A Snow Light Snow
1:15 PM 36.7 °F 24.9 °F 33.8 °F 89% 29.87 in 7.0 mi West 25.3 mph 38.0 mph N/A   Overcast
1:35 PM 34.0 °F 22.1 °F 33.4 °F 98% 29.88 in 0.2 mi West 21.9 mph 29.9 mph N/A Snow Snow
1:55 PM 33.1 °F 19.3 °F 32.9 °F 99% 29.91 in 0.2 mi WNW 28.8 mph 36.8 mph N/A Snow Heavy Snow
2:15 PM 31.8 °F 19.0 °F 31.1 °F 97% 29.93 in 0.2 mi West 23.0 mph 38.0 mph N/A Snow Heavy Snow
2:35 PM 31.8 °F 18.4 °F 31.3 °F 98% 29.95 in 0.5 mi West 25.3 mph 29.9 mph N/A Snow Light Snow
2:55 PM 31.6 °F 20.4 °F 31.1 °F 98% 29.96 in 1.8 mi WNW 17.3 mph - N/A Snow Light Snow
3:15 PM 31.6 °F 19.7 °F 29.8 °F 93% 29.97 in 4.0 mi WNW 19.6 mph - N/A Snow Light Snow
3:35 PM 31.1 °F 18.3 °F 29.7 °F 94% 29.99 in 1.0 mi WNW 21.9 mph 28.8 mph N/A Snow Light Snow
3:55 PM 29.3 °F 15.6 °F 28.4 °F 96% 30.01 in 1.8 mi West 23.0 mph 27.6 mph N/A Snow Light Snow
4:15 PM 29.7 °F 17.4 °F 27.0 °F 90% 30.03 in 10.0 mi West 18.4 mph 27.6 mph N/A   Overcast
4:35 PM 30.2 °F 18.1 °F 26.8 °F 87% 30.04 in 10.0 mi West 18.4 mph 25.3 mph N/A   Overcast
4:55 PM 29.7 °F 17.8 °F 25.5 °F 85% 30.06 in 10.0 mi West 17.3 mph 28.8 mph N/A   Overcast
5:15 PM 28.8 °F 16.6 °F 25.5 °F 88% 30.07 in 7.0 mi West 17.3 mph 27.6 mph N/A Snow Light Snow
5:35 PM 27.7 °F 14.5 °F 23.7 °F 85% 30.08 in 10.0 mi West 19.6 mph 27.6 mph N/A   Mostly Cloudy
5:55 PM 26.8 °F 12.6 °F 22.3 °F 83% 30.08 in 10.0 mi West 21.9 mph 32.2 mph N/A   Clear
6:15 PM 26.1 °F 14.0 °F 22.5 °F 86% 30.11 in 10.0 mi WNW 15.0 mph - N/A   Clear
6:35 PM 26.6 °F 12.4 °F 21.9 °F 82% 30.13 in 10.0 mi West 21.9 mph 28.8 mph N/A   Mostly Cloudy
6:55 PM 26.6 °F 11.4 °F 21.7 °F 82% 30.12 in 10.0 mi West 25.3 mph 33.4 mph N/A   Scattered Clouds
7:15 PM 26.6 °F 10.3 °F 21.6 °F 81% 30.14 in 10.0 mi West 29.9 mph 39.1 mph N/A   Clear
7:35 PM 26.8 °F 11.4 °F 20.3 °F 77% 30.16 in 10.0 mi West 26.5 mph 35.7 mph N/A   Clear
7:55 PM 26.6 °F 12.7 °F 20.1 °F 77% 30.16 in 10.0 mi West 20.7 mph 35.7 mph N/A   Clear
8:15 PM 25.5 °F 12.4 °F 19.8 °F 79% 30.18 in 10.0 mi West 17.3 mph 24.2 mph N/A   Clear
8:35 PM 25.7 °F 11.5 °F 18.9 °F 75% 30.19 in 10.0 mi West 20.7 mph - N/A   Clear
8:55 PM 25.5 °F 9.7 °F 18.3 °F 74% 30.16 in 10.0 mi West 26.5 mph 32.2 mph N/A   Clear
9:15 PM 25.3 °F 9.7 °F 18.1 °F 74% 30.18 in 10.0 mi West 25.3 mph 31.1 mph N/A   Clear
9:35 PM 25.2 °F 8.9 °F 18.1 °F 75% 30.17 in 10.0 mi West 27.6 mph 34.5 mph N/A   Clear
9:55 PM 24.8 °F 10.3 °F 18.1 °F 76% 30.18 in 10.0 mi West 20.7 mph 32.2 mph N/A   Clear
10:15 PM 25.0 °F 9.2 °F 20.1 °F 82% 30.18 in 10.0 mi WSW 25.3 mph 31.1 mph N/A   Clear
10:35 PM 25.2 °F 12.0 °F 19.8 °F 80% 30.20 in 10.0 mi West 17.3 mph 26.5 mph N/A   Clear
10:55 PM 25.0 °F 15.5 °F 19.9 °F 81% 30.22 in 10.0 mi West 9.2 mph - N/A   Clear
11:15 PM 25.5 °F 15.5 °F 19.8 °F 79% 30.23 in 10.0 mi West 10.4 mph - N/A   Clear
11:35 PM 24.8 °F 12.4 °F 19.2 °F 79% 30.22 in 10.0 mi West 15.0 mph 19.6 mph N/A   Clear
11:55 PM 24.8 °F 11.5 °F 19.4 °F 80% 30.22 in 10.0 mi West 17.3 mph - N/A   Clear